Regional Weather Roundup
Issued by NWS Mobile, AL

Home | Current Version | Previous Version | Text Only | Print | Product List | Glossary On
Versions: 1 2 3 4 5 6 7 8 9 10 11 12 13 14 15 16 17 18 19 20 21 22 23 24 25 26 27 28 29 30 31 32 33 34 35 36 37 38 39 40 41 42 43 44 45 46 47 48 49 50
000
ASUS44 KMOB 030316
RWRMOB
REGIONAL WEATHER ROUNDUP
NATIONAL WEATHER SERVICE MOBILE AL
1000 PM CDT WED SEP 02 2015

ALZ061>064-030400-
COASTAL ALABAMA


CITY           SKY/WX    TMP DP  RH WIND       PRES   REMARKS
MOBILE REG APT CLOUDY    77  75  93 CALM      30.02R
BROOKLEY FIELD MOCLDY    79  75  87 CALM      30.02R
GULF SHORES    MOCLDY    78  76  92 CALM      30.01R

$$

ALZ051>060-030400-
INTERIOR SOUTHWEST AND SOUTH CENTRAL ALABAMA


CITY           SKY/WX    TMP DP  RH WIND       PRES   REMARKS
ANDALUSIA/OPP  MOCLDY    83  73  72 CALM      30.00R
EVERGREEN      MOCLDY    79  72  79 CALM      30.01R
FLORALA        MOCLDY    79  70  74 CALM      30.02S
GREENVILLE     FAIR      78  74  87 CALM      30.00S

$$

FLZ001>006-030400-
WESTERN FLORIDA PANHANDLE


CITY           SKY/WX    TMP DP  RH WIND       PRES   REMARKS
CRESTVIEW      MOCLDY    80  71  74 S5        30.02R
DESTIN         PTCLDY    85  76  74 VRB3      30.00S
DUKE FIELD     MOCLDY    82  70  67 SW3       30.01
MARY ESTHER    PTCLDY    83  73  69 W2        30.00R
MILTON         MOCLDY    81  72  74 CALM      30.01R
PENSACOLA      PTCLDY    82  74  76 W7        30.01R
NAS PENSACOLA  CLOUDY    78  74  87 W3        30.00
VALPARAISO     MOCLDY    83  73  72 CALM      30.01

$$

...MARINE OBSERVATIONS...

STATION/POSITION TIME  SKY/WX   TEMP    WIND        PRES    VSBY
                                AIR SEA DIR/SP/G
                 (UTC)          (F)     (DEG/KT/KT) (MB)    (MI)
PASCAGOULA       0200            82     340/  2/  2 1015.9R
PETIT BOIS ISL   0200            83     200/  2/  2 1016.5R
E DAUPHIN ISLAND 0300            83     240/  2/  2 1016.2R
MIDDLE BAY LIGHT 0200            83     280/  5     1015.6R
USCG MOBILE BAY  0200            83 86  250/  4/  5 1014.9R
STATE DOCKS      0200            84 85              1015.6R
MEAHER PARK      0300            83     250/  4     1015.6R
FORT MORGAN      0200            83     260/  5/  5 1015.7R
12 S ORANGE BCH  0250            84 86  230/  6/  8 1015.7R
WVE H/P(F/S)=  1/ 5

PENSACOLA BAY    0200            83 86  260/  2/  5 1016.0R
64 S DAUPHIN ISL 0250            83 86  170/ 10/ 10 1016.6R
WVE H/P(F/S)=  1/ 5

115 SE PENSACOLA 0250            84 87  240/  6/  8 1016.6F
WVE H/P(F/S)=  1

MID GULF/42001   0300            81 85  320/  2/  4 1016.6R
EAST GULF/42003  0250            85 86   40/  4/  6 1016.9R
WVE H/P(F/S)=  1/ 5


$$

...NEARBY LOCATIONS

CITY           SKY/WX    TMP DP  RH WIND       PRES   REMARKS
GULFPORT       MOCLDY    80  74  81 CALM      30.01R
BILOXI         CLOUDY    81  75  81 CALM      30.01R
PASCAGOULA     MOCLDY    75  74  96 CALM      30.01R
HATTIESBURG    MOCLDY    78  71  79 CALM      30.01S
LAUREL         MOCLDY    73  57  56 CALM      30.02S
MERIDIAN       CLOUDY    76  74  93 CALM      30.01S
MERIDIAN NAS   CLOUDY    77  74  90 NW3       30.02R
MONTGOMERY     MOCLDY    80  72  76 CALM      30.00S
MAXWELL AFB    MOCLDY    79  74  86 CALM      29.99S
TROY           PTCLDY    77  74  90 CALM      30.01S
FORT RUCKER    PTCLDY    77  72  84 NE3       29.99S
DALEVILLE        N/A     81  72  72 CALM      29.99R
DOTHAN         PTCLDY    80  74  81 CALM      30.04R

$$

...OTHER SURROUNDING LOCATIONS...

CITY           SKY/WX    TMP DP  RH WIND       PRES   REMARKS
BIRMINGHAM     CLOUDY    79  74  84 NE3       30.05S
TUSCALOOSA     CLOUDY    78  75  90 CALM      30.01R
COLUMBUS GA    FAIR      81  72  74 CALM      30.01R
PANAMA CITY    NOT AVBL
TALLAHASSEE    PTCLDY    81  76  84 CALM      30.00S
BATON ROUGE    MOCLDY    76  71  85 NE3       29.99S
NEW ORLEANS    MOCLDY    79  71  76 CALM      30.01R
SLIDELL        CLOUDY    75  74  96 CALM      30.00R
JACKSON        PTCLDY    76  69  79 CALM      30.00S
MCCOMB         MOCLDY    75  73  93 CALM      30.01S

$$

...SURROUNDING MARINE OBSERVATIONS...

STATION/POSITION TIME  SKY/WX   TEMP    WIND        PRES    VSBY
                                AIR SEA DIR/SP/G
                 (UTC)          (F)     (DEG/KT/KT) (MB)    (MI)
WAVELAND         0200            80 86  260/  5/  6 1016.3R
PASCAGOULA RGN A 0200            82     350/  1/  2 1015.6R
PASCAGOULA PORT  0200               86                N/A
GRAND ISLE       0200            80 85  100/  2/  5 1015.7R
SOUTHWEST PASS   0300                                 N/A
PILOT STATION E  0200            79 86   90/  5/  7 1016.3R
SHELL BEACH      0200            80 85  310/  2/  3 1015.4R
PANAMA CITY      0200            85 87  280/  9/ 11 1015.6R
APALACHICOLA     0200            83 87  280/  3/  4 1016.2R
TYNDALL TOWER C  0300            84     260/  7/  8 1016.3S
S APLCHCLA/42036 0250            85 86  260/  2/  2 1016.7R
WVE H/P(F/S)=  1/ 7


$$



USA.gov is the U.S. government's official web portal to all federal, state and local government web resources and services.